星链-4502 (STARLINK-4502 )

导读 | 星芒AI

STARLINK-4502 是 SpaceX Starlink 项目中的一颗低轨通信卫星,属于第四批发射的星链卫星群。该卫星运行在约 550 公里的轨道高度,主要用于提供全球范围内的高速互联网服务。它采用先进的相控阵天线和激光通信技术,以提升连接速度和稳定性。STARLINK-4502 与其它星链卫星共同构建了一个高效的卫星网络,旨在为偏远和网络覆盖不足地区提供可靠的宽带接入。

基本信息
目录编号:
53557
目录名称:
STARLINK-4502
国际标识:
2022-101AG
轨道中心:
EARTH
卫星名称:
星链-4502
卫星全名:
星链-4502 (STARLINK-4502 )
卫星状态:
在轨 (已飞行1220 天)
发射日期:
2022-08-19 UTC
国别 :
美国 (US)
星等 :
--
轨道信息
数据来源 国际轨道数据
星历时间: 2025-12-21T05:40:42+0800
10小时前
查看轨道信息
半长轴: 6917.874km
偏心率: 0.0001218
轨道倾角: 53.218°
近地点辐角 89.436°
升交点赤经 57.806°
平近点角 270.677°
近地点: 538.894km
远地点: 540.58km
周期: 95.437分钟
每日圈数: 15.088424
详细信息
固有亮度:
5
最大亮度:
2.5
卫星平台:
Starlink v1.5
覆盖范围:
全球
运营商:
太空探索技术公司
运营商所在国:
美国
制造商(研发单位):
太空探索技术公司
制造商所在国:
美国
使用方式:
暂无
卫星简介
星链(Starlink)计划是由太空探索技术公司(SpaceX)提出的一个巨型低轨卫星互联网星座项目,计划在2019年至2024年间在太空搭建由约1.2万颗卫星组成的“星链”网络,其中1584颗将部署在地球上空550千米处的近地轨道,并从2020年开始工作。该卫星仍在工作。
2D轨道图
3D轨道图
轨道高度分析图
轨道倾角分析图
轨道综合分析图
查看轨道综合分析图